Dewpoint
19 14 12 15 16 14 15 13 11 14 17 14 14 18 25 30 30 31 31 30 32 33 34 36 38 38 39 41 42 44 45 47 50 53 54 66 65 66 66 65 65 65 64 63
14 13 15 13 18 12 10 10 10 14 15 15 14 25 27 29 31 33 33 32 31 34 35 35 37 38 38 40 41 42 43 45 47 48 51 56 63 66 66 65 65 65 64 63
14 13 13 12 11 13 13 8 9 9 13 16 16 16 27 29 30 30 31 33 32 34 36 35 36 37 38 38 40 41 42 43 45 47 49 53 61 66 65 65 65 64 64 64
12 13 9 10 9 10 10 11 11 10 11 5 18 1 18 28 26 22 25 31 31 32 37 36 35 36 37 37 39 40 42 41 43 46 47 49 53 54 63 64 65 65 64 63
12 10 9 4 10 9 6 14 15 16 15 14 14 11 13 25 23 19 16 21 26 32 36 37 35 35 36 37 38 39 39 39 42 44 46 48 49 51 54 59 64 65 65 64
16 17 13 10 12 10 11 17 14 19 19 13 15 11 9 18 23 13 10 14 22 30 35 38 37 34 34 35 36 37 38 38 39 42 44 46 47 49 52 53 56 62 64 64
9 11 13 14 6 7 11 10 -2 -4 6 7 14 6 14 19 22 17 11 12 17 26 34 35 36 34 35 36 37 35 35 36 38 40 42 43 45 47 48 50 53 56 59 63
3 0 12 12 10 8 10 13 1 -20 -2 3 10 1 16 25 25 15 12 12 14 19 30 34 35 36 35 36 37 37 35 35 37 39 40 42 43 44 47 49 51 53 55 58
7 8 14 13 19 14 9 16 17 14 15 11 9 15 13 25 22 24 14 11 15 19 23 35 34 35 34 35 37 39 35 34 35 37 39 41 41 42 44 46 49 50 52 53
13 7 15 14 16 18 14 19 9 12 -2 -6 3 4 3 5 7 11 11 16 19 22 23 35 36 35 33 35 37 40 35 32 35 36 36 40 41 41 42 44 46 47 49 51
16 10 10 12 10 9 8 11 16 16 15 4 -2 -4 11 7 9 15 20 21 24 27 34 36 37 36 34 34 36 39 35 32 34 34 35 37 40 41 41 42 44 45 46 48
18 14 9 10 16 21 16 12 11 3 5 13 7 2 8 11 16 26 26 27 30 35 35 37 37 35 35 33 34 37 36 33 34 33 33 35 38 40 40 40 40 43 44 46
17 12 3 -3 11 20 17 18 12 13 14 10 9 4 12 14 18 26 30 31 33 35 34 35 35 35 35 34 35 35 34 34 34 33 32 33 36 38 39 39 39 40 42 44
18 13 6 -8 -9 11 14 13 13 12 13 11 11 8 10 14 17 22 29 31 32 34 33 34 35 36 36 34 34 32 32 33 33 32 31 32 34 36 37 39 39 39 40 42
17 13 14 13 10 10 11 11 14 12 13 9 7 11 13 15 18 21 30 32 31 31 31 33 34 35 36 33 33 31 31 32 32 29 30 32 34 35 36 37 37 38 39 39
18 11 15 12 13 13 12 12 13 13 12 13 12 12 15 18 22 27 29 29 29 30 31 32 34 34 34 32 32 30 31 31 32 30 30 32 33 34 35 36 36 35 37 38
16 14 13 4 12 13 5 12 11 10 12 13 14 15 18 22 24 26 27 29 29 30 31 32 34 35 35 31 31 29 31 31 30 29 31 31 31 33 34 35 35 35 35 37
17 14 13 9 12 -9 -2 11 14 13 15 18 19 23 23 23 25 28 30 30 30 30 30 33 35 35 33 31 30 31 30 30 30 29 30 31 31 31 33 34 34 34 35 36
19 17 13 6 10 5 4 13 11 13 8 17 19 21 23 23 27 28 28 29 30 30 33 34 35 33 31 31 30 30 30 30 30 29 30 32 32 31 32 33 34 34 34 34
20 19 14 14 7 -4 6 16 22 19 9 17 19 20 20 24 20 18 24 26 29 31 30 30 29 30 30 30 31 30 30 30 30 29 30 32 32 31 32 33 33 33 32 32
18 18 16 14 12 11 13 15 19 11 13 19 23 22 23 24 25 25 28 29 30 30 29 28 28 29 29 31 31 30 30 29 29 28 31 32 33 31 31 31 31 31 31 31
15 15 16 15 13 7 15 15 12 16 21 20 20 21 24 26 28 29 29 29 29 29 28 28 28 28 30 31 31 29 26 25 27 29 30 30 31 31 30 30 30 30 30 30
16 16 16 15 14 16 19 19 21 22 20 20 19 18 20 23 25 28 27 26 28 29 28 28 28 29 30 30 29 24 23 25 27 29 29 29 29 28 28 28 29 29 29 29
19 22 19 18 17 18 19 20 21 19 18 18 19 19 22 22 24 24 22 23 27 29 28 29 28 28 28 26 25 24 25 26 27 28 29 28 28 28 26 27 28 28 28 28
14 17 14 14 15 16 16 17 18 17 18 19 19 20 20 21 22 21 21 22 27 29 29 29 27 27 25 23 24 25 25 26 26 28 27 27 27 27 26 26 27 27 29 30
19 16 14 12 15 17 17 18 20 20 20 21 21 20 21 22 22 21 22 26 30 29 29 27 25 25 23 24 24 25 26 26 26 26 25 25 26 25 25 26 26 28 27 28
Wind_Speed
17 22 22 14 13 13 13 10 5 1 4 6 9 9 9 10 16 17 17 20 22 23 20 22 25 26 25 24 27 27 26 24 20 19 15 12 18 17 14 17 18 21 21 23
11 26 8 11 12 14 12 8 8 3 4 2 3 8 3 10 11 11 14 18 21 24 28 28 27 28 27 25 25 26 26 25 20 17 15 8 11 13 14 13 16 20 21 22
20 5 10 11 15 10 8 9 4 3 9 3 1 5 5 5 6 9 14 14 15 18 21 26 27 26 27 28 26 24 24 25 22 22 16 15 12 10 10 15 17 20 23 24
13 7 13 12 10 8 4 7 5 5 4 2 6 0 1 5 7 12 16 17 19 20 18 21 23 24 25 26 24 23 22 24 23 23 21 21 11 14 8 14 15 18 22 24
4 10 10 12 6 9 2 12 1 0 2 1 8 1 2 4 4 14 18 18 17 19 18 19 20 21 20 23 24 23 23 23 23 24 20 18 18 15 15 16 13 18 17 21
7 2 6 7 3 5 13 3 4 4 2 2 1 6 1 3 1 7 14 18 19 19 19 17 17 18 20 20 23 24 25 25 25 23 23 21 21 19 18 17 15 12 13 13
4 6 2 4 2 7 14 5 2 2 4 2 4 6 4 4 3 3 10 16 18 17 18 18 18 18 19 22 22 24 25 25 25 25 24 22 21 19 18 17 16 16 13 13
2 1 7 8 4 3 7 6 4 2 3 5 9 1 4 8 6 4 7 13 17 18 15 16 16 16 18 19 20 22 25 25 24 24 23 22 22 18 16 16 19 15 15 13
4 3 2 5 4 1 2 6 1 4 3 3 4 3 8 8 13 11 14 21 21 21 17 14 15 16 18 16 16 19 22 23 24 24 20 20 20 21 20 20 18 16 17 17
3 4 1 3 1 9 6 3 2 4 1 2 4 5 4 10 12 16 20 23 23 21 16 13 12 15 16 15 14 14 19 20 20 23 21 19 19 20 19 18 19 19 19 20
4 2 3 3 1 3 2 2 5 4 1 1 4 3 6 7 11 20 22 18 18 15 13 13 11 12 13 13 13 12 16 19 19 20 21 21 20 20 19 18 19 20 20 19
2 3 2 1 2 1 1 3 4 3 4 3 1 8 6 6 13 15 15 16 16 11 14 13 11 10 12 11 12 12 14 16 18 19 20 19 18 20 20 20 19 20 20 19
8 1 1 1 2 0 3 3 4 6 3 9 7 6 5 9 15 14 13 16 14 11 14 13 11 12 13 12 12 13 15 14 15 17 18 20 20 19 21 22 21 19 19 20
7 5 6 6 2 4 5 9 10 8 6 5 17 15 25 19 18 18 18 16 15 13 11 10 11 12 12 10 11 13 14 14 14 16 16 15 17 18 17 18 21 21 19 17
4 5 6 11 10 8 11 11 17 20 16 13 10 15 21 20 21 19 16 15 15 15 14 12 11 12 11 10 10 11 13 14 15 16 17 17 16 16 17 17 17 20 21 19
3 1 1 6 7 11 19 21 20 24 25 24 25 28 27 22 15 14 16 13 15 16 16 13 12 13 11 8 9 12 13 13 14 16 16 18 17 18 18 19 19 18 20 21
6 5 2 5 3 7 16 23 23 21 18 24 20 22 14 13 12 15 15 13 15 15 16 13 13 13 10 8 8 13 13 13 15 14 15 18 20 20 19 18 18 20 19 19
9 8 4 5 1 5 3 2 7 19 17 24 18 13 13 16 14 15 16 15 16 13 14 14 14 13 9 7 8 11 12 13 15 15 15 15 18 19 19 19 19 19 19 18
5 7 2 4 4 12 7 2 9 7 14 23 24 22 16 12 5 15 14 12 12 12 11 12 10 8 7 7 8 10 13 13 15 16 17 17 17 19 19 20 20 19 18 18
7 3 8 3 3 6 2 3 2 3 16 8 12 14 13 3 10 14 11 7 8 7 6 7 7 6 6 7 8 11 14 15 16 18 17 17 16 18 18 18 19 18 17 17
6 5 18 9 6 10 12 11 1 5 7 2 3 7 9 9 15 12 4 11 10 9 7 6 6 5 6 6 8 11 14 16 16 17 16 16 15 18 17 17 18 19 19 20
11 11 7 6 6 11 6 3 8 3 2 5 7 9 12 15 17 16 16 16 14 12 8 6 5 4 5 5 8 13 15 15 15 16 15 16 16 16 16 18 17 18 19 20
6 8 7 15 10 6 4 7 7 7 8 7 12 17 17 18 17 16 16 16 15 11 8 5 4 5 5 6 8 12 14 16 15 15 15 16 15 15 17 17 18 17 16 17
3 5 6 3 9 20 18 16 14 16 16 13 16 18 16 18 18 18 21 18 16 10 9 7 5 6 7 7 8 10 13 14 14 15 15 15 17 17 16 15 14 15 16 17
3 3 6 15 18 17 13 9 12 21 21 18 19 19 22 21 21 20 21 20 16 11 9 7 6 6 6 7 9 10 12 12 13 14 14 16 16 16 17 15 15 15 16 15
9 9 5 9 14 16 23 24 24 23 27 26 25 26 24 20 21 20 21 17 12 11 8 6 5 6 7 8 10 11 11 11 12 14 14 15 16 17 16 17 19 14 17 20
Wind_Direction
44 74 54 56 72 102 111 97 92 354 16 3 16 44 62 54 54 43 30 27 23 14 6 6 3 3 6 8 1 359 357 358 358 358 344 245 224 217 220 212 213 209 215 214
72 57 31 72 74 79 76 98 35 285 331 352 61 75 95 43 40 39 37 28 18 11 5 4 359 0 4 3 2 357 354 354 355 349 327 290 295 229 220 217 211 216 210 212
83 72 46 64 49 52 65 56 16 328 321 69 48 145 74 46 30 36 31 25 24 13 7 359 358 357 357 1 360 357 352 350 353 351 340 336 328 242 204 213 215 215 213 211
64 29 53 49 55 20 85 26 347 334 337 30 350 124 154 357 20 29 12 8 6 5 5 1 360 359 360 357 356 357 355 354 352 354 353 352 335 333 296 216 218 219 216 216
99 51 37 41 11 3 347 338 331 199 109 166 31 303 157 355 8 12 12 7 1 359 358 356 359 359 356 358 357 357 358 359 356 353 356 351 346 336 327 333 244 221 215 216
93 64 39 6 1 358 329 29 75 72 68 77 68 358 64 28 26 13 20 15 3 355 354 352 351 358 1 1 359 358 358 359 357 355 352 353 351 344 343 340 336 306 215 216
46 31 11 21 29 354 12 43 76 92 35 24 332 326 317 199 220 304 350 357 1 354 348 348 348 348 349 352 356 355 355 353 357 354 354 351 350 346 343 340 332 329 316 220
115 94 13 353 54 356 15 28 66 346 354 317 332 256 326 239 254 268 310 342 346 347 341 337 341 340 338 342 346 354 353 349 350 352 349 350 349 346 341 338 331 338 341 323
129 119 90 54 34 353 42 53 34 98 54 265 312 294 289 266 266 284 314 328 335 336 336 327 339 339 338 342 342 347 352 349 345 348 346 347 348 348 342 340 339 339 335 330
148 116 118 155 308 45 78 121 119 47 45 313 276 274 293 334 320 316 319 323 322 326 328 326 332 334 339 346 343 345 350 349 344 341 345 345 345 347 344 340 342 341 336 330
119 102 166 176 98 144 133 124 73 101 94 184 297 220 218 282 317 316 316 315 321 326 321 321 323 333 343 346 348 341 346 347 346 344 340 340 344 343 347 345 342 341 337 335
95 112 137 125 292 202 107 153 149 163 193 205 261 271 217 263 323 335 329 323 323 329 322 320 322 332 334 339 349 343 342 344 343 340 340 340 341 342 343 347 344 340 339 336
169 82 295 204 128 39 214 187 141 114 113 206 183 252 189 308 325 329 333 331 327 323 329 328 336 339 335 342 343 344 341 338 340 339 339 341 342 343 342 339 342 342 338 337
135 166 212 238 193 145 204 199 192 173 191 205 226 268 292 304 309 314 319 324 325 322 326 325 325 332 331 330 338 345 345 340 338 339 338 341 341 338 336 336 336 340 339 337
172 234 221 256 253 222 246 226 199 209 206 218 255 251 271 286 292 291 298 304 316 322 323 323 321 326 328 321 330 341 343 343 341 343 340 342 340 340 338 340 342 336 338 338
169 232 125 285 280 249 259 253 233 228 232 238 252 269 273 274 277 271 285 302 309 313 318 315 312 320 320 315 325 338 343 344 344 341 341 339 343 345 342 340 344 345 338 339
160 160 138 259 325 308 276 251 230 232 230 217 230 237 254 275 269 275 283 291 300 304 313 304 309 312 305 310 325 336 340 340 346 345 342 342 341 340 341 338 343 346 341 335
150 156 179 270 302 239 251 248 232 231 233 219 240 242 241 259 274 283 274 273 285 294 306 310 306 310 306 311 323 334 339 341 341 343 339 340 342 336 336 338 342 344 341 338
183 157 204 251 218 300 293 229 198 200 266 225 233 252 258 275 288 281 271 262 258 288 302 301 298 294 291 304 324 329 332 336 339 340 336 336 338 336 335 339 339 342 340 335
174 204 207 168 233 260 225 123 150 175 283 229 226 251 253 215 261 275 289 242 268 278 299 295 308 294 294 317 330 327 328 331 332 334 329 329 332 334 333 335 337 338 337 331
153 202 219 223 259 274 264 245 92 245 256 328 200 248 270 245 245 278 251 280 267 267 274 273 286 297 321 326 331 323 322 323 326 324 324 328 328 335 331 333 335 334 335 334
185 182 181 180 229 272 237 216 212 215 270 276 286 283 277 273 278 277 284 284 280 264 261 251 266 297 320 329 331 321 318 325 324 325 323 327 330 335 330 331 330 332 332 330
229 200 184 193 220 257 262 269 248 300 289 287 302 306 293 289 288 286 291 292 280 257 249 229 250 279 292 315 324 318 321 324 323 323 324 328 323 329 329 327 326 327 328 327
204 178 233 191 249 261 274 277 275 284 287 293 293 297 290 291 289 290 292 290 277 245 228 220 247 278 297 314 316 310 318 321 319 320 322 324 323 324 326 322 319 318 321 322
233 214 245 272 285 288 284 283 294 296 290 285 281 277 283 281 277 287 283 284 267 227 207 219 258 276 286 310 303 306 313 312 313 316 319 324 325 326 324 319 313 311 306 303
216 239 228 270 294 287 290 297 292 288 287 288 284 286 282 274 274 280 279 278 238 209 202 223 253 262 288 302 303 308 311 303 303 307 312 320 320 324 323 320 316 298 285 289